Location: Vilnius
(54.6830°N, 25.3170°E)
Time: 14:42:05
(UTC+03:00)

ISS - Visible Passes

Search period start: 22 October 2019 00:00
Search period end: 31 October 2019 23:00
Orbit: 411 x 421 km, 51.6° (Epoch: 22 October)

Date Brightness Start Highest point End Pass type
(mag) Time Alt. Az. Time Alt. Az. Time Alt. Az.
25 Oct -0.7 07:04:51 10° S 07:06:26 13° SE 07:08:00 10° ESE visible
27 Oct -1.5 06:02:51 10° SSW 06:05:32 22° SSE 06:08:13 10° E visible
28 Oct -1.2 05:14:52 10° S 05:17:06 17° SSE 05:19:20 10° ESE visible
29 Oct -0.9 04:28:21 12° SSE 04:28:41 12° SE 04:30:04 10° ESE visible
29 Oct -2.3 06:01:38 10° SW 06:04:43 34° SSE 06:07:49 10° E visible
30 Oct -2.0 05:14:50 20° SSW 05:16:12 27° SSE 05:19:07 10° E visible
31 Oct -1.5 04:28:20 20° SE 04:28:20 20° SE 04:30:19 10° E visible
31 Oct -2.9 06:01:14 14° WSW 06:03:58 46° S 06:07:11 10° E visible
